KB1KVS Weather Reports


time (UTC)temp
C
wind
direction
speed
KPH
gust
KPH
rain 1hr
cm
rain 24hr
cm
rain mn
cm
humidity
%
barometer
mb
20201126033021 4 0 1.6 3.2 0.00 0.00 0.00 80 1022.0
20201126032024 4 0 3.2 6.4 0.00 0.00 0.00 79 1022.1
20201126031021 4 0 3.2 6.4 0.00 0.00 0.00 80 1022.1
20201126030018 4 0 3.2 6.4 0.00 0.00 0.00 79 1022.3
20201126025021 5 23 3.2 6.4 0.00 0.00 0.00 79 1022.0
20201126024021 5 45 1.6 3.2 0.00 0.00 0.00 79 1022.1
20201126023019 5 0.0 1.6 0.00 0.00 0.00 79 1022.2
20201126022019 5 23 1.6 4.8 0.00 0.00 0.00 79 1022.1
20201126021022 5 0 4.8 6.4 0.00 0.00 0.00 79 1022.2
20201126020022 5 338 3.2 6.4 0.00 0.00 0.00 78 1022.2
20201126015021 5 338 3.2 6.4 0.00 0.00 0.00 78 1022.2
20201126014018 5 338 3.2 6.4 0.00 0.00 0.00 78 1022.1
20201126013021 5 338 3.2 4.8 0.00 0.00 0.00 77 1022.1
20201126012016 5 23 4.8 9.7 0.00 0.00 0.00 76 1022.1
20201126011023 5 315 3.2 11.3 0.00 0.00 0.00 76 1022.2
20201126010022 5 23 4.8 8.0 0.00 0.00 0.00 76 1022.3
20201126005023 5 338 3.2 6.4 0.00 0.00 0.00 77 1022.3
20201126004020 5 45 3.2 8.0 0.00 0.00 0.00 76 1022.3
20201126003028 5 0 3.2 9.7 0.00 0.00 0.00 76 1022.3
20201126002027 5 338 4.8 11.3 0.00 0.00 0.00 76 1022.3
20201126001030 5 0 6.4 11.3 0.00 0.00 0.00 77 1022.3
20201126000021 6 338 3.2 6.4 0.00 0.00 0.00 77 1022.3
20201125235021 6 0 4.8 9.7 0.00 0.00 0.00 77 1022.4
20201125234023 6 338 4.8 9.7 0.00 0.00 0.00 77 1022.4
20201125233025 6 338 4.8 8.0 0.00 0.00 0.00 77 1022.4
20201125232020 6 0 6.4 8.0 0.00 0.00 0.00 77 1022.5
20201125231026 6 338 6.4 12.9 0.00 0.00 0.00 77 1022.6
20201125230022 7 338 8.0 14.5 0.00 0.00 0.00 77 1022.5
20201125225021 7 0 6.4 11.3 0.00 0.00 0.00 77 1022.6
20201125224023 7 338 4.8 8.0 0.00 0.00 0.00 77 1022.7
20201125223019 7 338 4.8 6.4 0.00 0.00 0.00 76 1022.6
20201125222021 7 338 6.4 9.7 0.00 0.00 0.00 77 1022.8
20201125221029 7 338 8.0 11.3 0.00 0.00 0.00 76 1022.7
20201125220021 8 338 6.4 9.7 0.00 0.00 0.00 76 1022.8
20201125215020 8 338 4.8 8.0 0.00 0.00 0.00 78 1022.7
20201125214031 9 338 4.8 8.0 0.00 0.00 0.00 84 1022.7
20201125213019 10 338 3.2 4.8 0.00 0.00 0.00 85 1022.6
20201125212029 10 225 1.6 3.2 0.00 0.00 0.00 85 1022.6
20201125211028 10 0.0 3.2 0.00 0.00 0.00 85 1022.8
20201125210039 10 225 3.2 4.8 0.00 0.00 0.00 85 1022.7
20201125205026 10 225 8.0 9.7 0.00 0.00 0.00 85 1022.7
20201125204030 10 203 8.0 12.9 0.00 0.00 0.00 85 1022.7
20201125203025 10 225 8.0 14.5 0.00 0.00 0.00 85 1022.7
20201125202020 10 225 9.7 14.5 0.00 0.00 0.00 85 1022.8
20201125201023 10 203 8.0 16.1 0.00 0.00 0.00 84 1022.8
20201125200045 10 225 11.3 14.5 0.00 0.00 0.00 83 1022.8
20201125195018 10 203 9.7 14.5 0.00 0.00 0.00 82 1022.9
20201125194020 10 203 9.7 16.1 0.00 0.00 0.00 82 1023.0
20201125193021 10 203 8.0 14.5 0.00 0.00 0.00 82 1023.2
20201125192018 10 203 8.0 14.5 0.00 0.00 0.00 81 1023.3
20201125191024 10 203 11.3 17.7 0.00 0.00 0.00 81 1023.5
20201125190025 10 225 11.3 17.7 0.00 0.00 0.00 80 1023.6
20201125185025 10 225 14.5 20.9 0.00 0.00 0.00 79 1023.6
20201125184026 9 225 12.9 22.5 0.00 0.00 0.00 78 1023.9
20201125183019 9 225 12.9 24.1 0.00 0.00 0.00 78 1024.0
20201125182025 9 225 14.5 22.5 0.00 0.00 0.00 77 1024.0
20201125181017 8 225 12.9 19.3 0.00 0.00 0.00 76 1024.2
20201125180023 8 225 16.1 25.7 0.00 0.00 0.00 76 1024.5
20201125175023 8 225 19.3 25.7 0.00 0.00 0.00 76 1024.6
20201125174022 8 225 16.1 25.7 0.00 0.00 0.00 76 1025.0
20201125173028 8 225 12.9 19.3 0.00 0.00 0.00 75 1025.3
20201125172023 8 203 11.3 19.3 0.00 0.00 0.00 75 1025.5
20201125171020 8 225 20.9 27.4 0.00 0.00 0.00 74 1025.7
20201125170026 8 225 19.3 30.6 0.00 0.00 0.00 75 1026.0
20201125165024 8 225 19.3 30.6 0.00 0.00 0.00 75 1026.0
20201125164022 8 225 20.9 32.2 0.00 0.00 0.00 75 1026.2
20201125163016 8 225 20.9 32.2 0.00 0.00 0.00 75 1026.4
20201125162021 8 203 19.3 30.6 0.00 0.00 0.00 75 1026.7
20201125161020 7 203 17.7 32.2 0.00 0.00 0.00 75 1027.0
20201125160026 7 203 14.5 25.7 0.00 0.00 0.00 75 1027.2
20201125155028 7 225 16.1 29.0 0.00 0.00 0.00 75 1027.5
20201125154025 7 203 12.9 20.9 0.00 0.00 0.00 74 1027.6
20201125153026 7 203 14.5 25.7 0.00 0.00 0.00 74 1027.7
20201125152024 7 203 14.5 30.6 0.00 0.00 0.00 75 1027.9
20201125151021 6 203 12.9 24.1 0.00 0.00 0.00 77 1028.1
20201125150025 5 203 14.5 27.4 0.00 0.00 0.00 79 1028.2
20201125145026 3 270 3.2 6.4 0.00 0.00 0.00 77 1028.2
20201125144021 2 315 4.8 6.4 0.00 0.00 0.00 75 1028.6
20201125143021 2 23 3.2 6.4 0.00 0.00 0.00 74 1028.8
20201125142019 2 0 4.8 9.7 0.00 0.00 0.00 74 1029.0
20201125141037 2 113 3.2 4.8 0.00 0.00 0.00 74 1029.2
20201125140028 1 0 3.2 6.4 0.00 0.00 0.00 75 1029.2
20201125135022 1 0 3.2 4.8 0.00 0.00 0.00 75 1029.2
20201125134017 1 0 4.8 6.4 0.00 0.00 0.00 75 1029.2
20201125133021 1 0 3.2 4.8 0.00 0.00 0.00 76 1029.2
20201125132019 0 315 1.6 4.8 0.00 0.00 0.00 76 1029.2
20201125131019 0 338 1.6 4.8 0.00 0.00 0.00 76 1029.3
20201125130020 0 315 1.6 3.2 0.00 0.00 0.00 76 1029.4
20201125125029 0 338 1.6 4.8 0.00 0.00 0.00 76 1029.6
20201125124026 0 0 1.6 4.8 0.00 0.00 0.00 76 1029.5
20201125123054 0 0 1.6 3.2 0.00 0.00 0.00 76 1029.6
20201125122030 0 23 1.6 3.2 0.00 0.00 0.00 76 1029.6
20201125121020 0 338 3.2 6.4 0.00 0.00 0.00 76 1029.9
20201125120035 0 0 4.8 8.0 0.00 0.00 0.00 76 1030.1
20201125115019 0 338 4.8 6.4 0.00 0.00 0.00 76 1030.0
20201125114028 0 338 4.8 8.0 0.00 0.00 0.00 76 1030.0
20201125113022 0 0 4.8 8.0 0.00 0.00 0.00 76 1030.0
20201125112019 0 338 6.4 9.7 0.00 0.00 0.00 76 1030.1
20201125111029 0 338 8.0 9.7 0.00 0.00 0.00 76 1030.2
20201125110023 0 338 8.0 11.3 0.00 0.00 0.00 76 1030.1
20201125105020 0 0 6.4 11.3 0.00 0.00 0.00 76 1029.9
20201125104024 0 0 6.4 11.3 0.00 0.00 0.00 76 1029.6
20201125103022 0 23 4.8 8.0 0.00 0.00 0.00 76 1029.6
20201125102022 0 23 6.4 12.9 0.00 0.00 0.00 76 1029.8
20201125101016 0 0 8.0 11.3 0.00 0.00 0.00 76 1029.7
20201125100025 0 338 8.0 11.3 0.00 0.00 0.00 75 1030.1
20201125095020 0 338 8.0 12.9 0.00 0.00 0.00 75 1030.0
20201125094022 0 338 6.4 9.7 0.00 0.00 0.00 75 1030.1
20201125093039 -1 23 4.8 8.0 0.00 0.00 0.00 74 1030.1
20201125092020 -1 338 4.8 8.0 0.00 0.00 0.00 74 1030.2
20201125091026 -1 45 6.4 9.7 0.00 0.00 0.00 74 1030.1
20201125090048 -1 0 4.8 8.0 0.00 0.00 0.00 74 1030.3
20201125085021 -1 23 4.8 9.7 0.00 0.00 0.00 74 1030.4
20201125084020 -1 338 4.8 8.0 0.00 0.00 0.00 74 1030.3
20201125083019 -1 0 4.8 8.0 0.00 0.00 0.00 73 1030.2
20201125082019 -1 0 1.6 4.8 0.00 0.00 0.00 73 1030.2
20201125081020 -1 45 3.2 6.4 0.00 0.00 0.00 73 1029.9
20201125080027 -2 23 4.8 9.7 0.00 0.00 0.00 72 1030.1
20201125075018 -2 23 6.4 11.3 0.00 0.00 0.00 71 1030.5
20201125074020 -2 315 3.2 6.4 0.00 0.00 0.00 71 1030.7
20201125073021 -2 0 3.2 6.4 0.00 0.00 0.00 70 1030.4
20201125072019 -2 23 4.8 9.7 0.00 0.00 0.00 69 1030.6
20201125071028 -2 0 4.8 8.0 0.00 0.00 0.00 69 1030.6
20201125070035 -2 338 4.8 9.7 0.00 0.00 0.00 69 1030.6
20201125065022 -1 338 1.6 3.2 0.00 0.00 0.00 70 1030.2
20201125064024 -1 315 1.6 4.8 0.00 0.00 0.00 69 1030.1
20201125063021 -1 23 4.8 11.3 0.00 0.00 0.00 68 1030.1
20201125062018 -1 23 4.8 11.3 0.00 0.00 0.00 67 1030.0
20201125061025 -1 23 6.4 9.7 0.00 0.00 0.00 66 1030.0
20201125060035 -1 23 8.0 11.3 0.00 0.00 0.00 65 1029.8
20201125055021 -1 23 8.0 14.5 0.00 0.00 0.00 64 1030.1
20201125054018 -1 23 8.0 14.5 0.00 0.00 0.00 64 1030.3
20201125053022 -1 23 6.4 11.3 0.00 0.00 0.00 63 1030.4
20201125052021 -1 45 6.4 12.9 0.00 0.00 0.00 63 1030.4
20201125051016 -1 23 6.4 12.9 0.00 0.00 0.00 63 1030.4
20201125050025 -1 23 8.0 11.3 0.00 0.00 0.00 63 1030.4
20201125045022 -1 23 4.8 9.7 0.00 0.00 0.00 62 1030.5
20201125044017 -1 23 6.4 11.3 0.00 0.00 0.00 62 1030.6
20201125043020 -1 0 6.4 12.9 0.00 0.00 0.00 61 1030.2
20201125042022 -1 23 6.4 9.7 0.00 0.00 0.00 60 1030.3
20201125041023 -1 45 6.4 12.9 0.00 0.00 0.00 59 1030.4
20201125040030 -1 23 4.8 9.7 0.00 0.00 0.00 57 1030.3
20201125035019 0 45 4.8 9.7 0.00 0.00 0.00 56 1030.1
20201125034029 0 23 3.2 8.0 0.00 0.00 0.00 57 1030.3